This is the latest recevied weather packets stored in our database for station/object WX7FGZ-3. If no packets are shown the sender has not sent any weather packets the latest 10 day(s).
| Time | Temp. | Humidity | Pressure | Rain* | Wind** | Luminosity | Snow |
|---|---|---|---|---|---|---|---|
| 1778155395 | -3.33° C | 61% | 1020.4 hPa | 0 mm | - | - | - |
| 1778154794 | -3.33° C | 60% | 1020.3 hPa | 0 mm | - | - | - |
| 1778153593 | -2.78° C | 59% | 1020.3 hPa | 0 mm | - | - | - |
| 1778153293 | -2.78° C | 58% | 1020.3 hPa | 0 mm | - | - | - |
| 1778152993 | -2.78° C | 55% | 1020.3 hPa | 0 mm | - | - | - |
| 1778152392 | -2.78° C | 55% | 1020.2 hPa | 0 mm | - | - | - |
| 1778152091 | -2.78° C | 58% | 1020.1 hPa | 0 mm | - | - | - |
| 1778151792 | -2.78° C | 63% | 1020 hPa | 0 mm | - | - | - |
| 1778151491 | -2.78° C | 65% | 1020 hPa | 0 mm | - | - | - |
| 1778151191 | -3.33° C | 63% | 1020.2 hPa | 0 mm | - | - | - |
| 1778150890 | -3.33° C | 63% | 1020.2 hPa | 0 mm | - | - | - |
| 1778150592 | -3.33° C | 63% | 1020 hPa | 0 mm | - | - | - |
| 1778150290 | -2.78° C | 60% | 1020.1 hPa | 0 mm | - | - | - |
| 1778149989 | -2.78° C | 61% | 1020.1 hPa | 0 mm | - | - | - |
| 1778149689 | -2.78° C | 61% | 1020 hPa | 0 mm | - | - | - |
| 1778149389 | -2.78° C | 60% | 1020 hPa | 0 mm | - | - | - |
| 1778149089 | -2.78° C | 59% | 1019.9 hPa | 0 mm | - | - | - |
| 1778148788 | -2.78° C | 55% | 1019.8 hPa | 0 mm | - | - | - |
| 1778148488 | -2.78° C | 55% | 1019.9 hPa | 0 mm | - | - | - |
| 1778148188 | -2.22° C | 53% | 1019.8 hPa | 0 mm | - | - | - |
| 1778147888 | -2.22° C | 53% | 1019.7 hPa | 0 mm | - | - | - |
| 1778147287 | -2.22° C | 55% | 1019.5 hPa | 0 mm | - | - | - |
| 1778146987 | -2.22° C | 56% | 1019.5 hPa | 0 mm | - | - | - |
| 1778146386 | -2.22° C | 60% | 1019.7 hPa | 0 mm | - | - | - |
| 1778146086 | -2.22° C | 58% | 1019.7 hPa | 0 mm | - | - | - |
* Rain latest hour (hover to see other rain measurements)
** Current wind speed in m/s (hover to see current wind gust speed)